Location: Cran-Gévrier
(45.9039°N, 6.1012°E)
Time: 11:23:46
(UTC+00:00)

CAS-4B - Visible Passes

Search period start: 05 December 2023 00:00
Search period end: 15 December 2023 00:00
Orbit: 494 x 508 km, 43.0° (Epoch: 05 December)

Date Brightness Start Highest point End Pass type
(mag) Time Alt. Az. Time Alt. Az. Time Alt. Az.
05 Dec ? 17:46:45 10° W 17:50:26 44° SSW 17:51:30 34° SSE visible
06 Dec ? 17:24:54 10° W 17:28:35 43° SSW 17:30:56 19° SE visible
06 Dec ? 19:04:52 10° WSW 19:05:34 13° WSW 19:05:34 13° WSW visible
07 Dec ? 17:03:02 10° W 17:06:43 42° SSW 17:10:22 10° ESE visible
07 Dec ? 18:43:05 10° WSW 18:45:07 16° SW 18:45:07 16° SW visible
08 Dec ? 16:41:09 10° W 16:44:49 41° SSW 16:48:27 10° SE visible
08 Dec ? 18:21:17 10° WSW 18:23:32 15° SSW 18:24:49 13° S visible
09 Dec ? 16:19:15 10° W 16:22:53 39° SSW 16:26:31 10° SE visible
09 Dec ? 17:59:29 10° WSW 18:01:35 14° SSW 18:03:42 10° S visible
10 Dec ? 17:37:40 10° WSW 17:39:37 13° SSW 17:41:34 10° S visible
11 Dec ? 17:15:51 10° WSW 17:17:38 13° SW 17:19:23 10° S visible
12 Dec ? 16:54:03 10° WSW 16:55:36 12° SW 16:57:10 10° S visible
13 Dec ? 16:32:14 10° SW 16:33:33 11° SW 16:34:53 10° SSW visible
